WB4ROX Weather Reports


time (UTC)temp
C
wind
direction
speed
KPH
gust
KPH
rain 1hr
cm
rain 24hr
cm
rain mn
cm
humidity
%
barometer
mb
20260906072107 18 74 0.0 1.6 0.00 0.00 0.00 88 1021.1
20260906071603 18 296 3.2 4.8 0.00 0.00 0.00 88 1021.1
20260906071103 18 73 1.6 1.6 0.00 0.00 0.00 88 1021.1
20260906070600 18 42 1.6 1.6 0.00 0.00 0.00 88 1021.1
20260906070055 18 44 1.6 1.6 0.00 0.00 0.00 88 1021.1
20260906065554 18 75 0.0 1.6 0.00 0.00 0.00 88 1021.1
20260906065050 18 70 0.0 0.0 0.00 0.00 0.00 88 1021.2
20260906064546 18 70 0.0 0.0 0.00 0.00 0.00 88 1021.1
20260906064040 18 65 0.0 0.0 0.00 0.00 0.00 88 1021.4
20260906063536 18 50 1.6 1.6 0.00 0.00 0.00 88 1021.5
20260906063032 18 61 0.0 0.0 0.00 0.00 0.00 87 1021.8
20260906062527 18 61 0.0 0.0 0.00 0.00 0.00 87 1022.0
20260906062021 18 69 0.0 0.0 0.00 0.00 0.00 88 1021.8
20260906061517 17 63 0.0 0.0 0.00 0.00 0.00 89 1022.0
20260906061016 17 82 0.0 0.0 0.00 0.00 0.00 89 1021.9
20260906060513 17 98 0.0 0.0 0.00 0.00 0.00 88 1022.0
20260906060010 17 98 0.0 0.0 0.00 0.00 0.00 88 1021.6
20260906055505 17 70 0.0 0.0 0.00 0.00 0.00 87 1021.9
20260906055001 17 80 0.0 0.0 0.00 0.00 0.00 88 1022.0
20260906054501 17 70 0.0 0.0 0.00 0.00 0.00 88 1022.0
20260906053956 17 69 0.0 0.0 0.00 0.00 0.00 88 1022.1
20260906053453 17 70 0.0 0.0 0.00 0.00 0.00 88 1022.0
20260906052948 17 70 0.0 0.0 0.00 0.00 0.00 88 1022.1
20260906052444 17 75 0.0 0.0 0.00 0.00 0.00 88 1022.1
20260906051941 17 70 0.0 1.6 0.00 0.00 0.00 89 1022.1
20260906051436 17 54 0.0 0.0 0.00 0.00 0.00 90 1022.2
20260906050931 17 75 0.0 0.0 0.00 0.00 0.00 90 1022.2
20260906050431 17 75 0.0 0.0 0.00 0.00 0.00 90 1022.3
20260906045930 17 62 0.0 0.0 0.00 0.00 0.00 89 1022.2
20260906045429 17 70 0.0 0.0 0.00 0.00 0.00 89 1022.2
20260906044926 17 70 0.0 0.0 0.00 0.00 0.00 89 1022.3
20260906044426 17 62 0.0 0.0 0.00 0.00 0.00 90 1022.4
20260906043921 17 63 0.0 0.0 0.00 0.00 0.00 90 1022.3
20260906043417 17 66 1.6 1.6 0.00 0.00 0.00 89 1022.4
20260906042912 17 64 0.0 0.0 0.00 0.00 0.00 89 1022.1
20260906042412 17 64 0.0 0.0 0.00 0.00 0.00 89 1022.3
20260906041907 17 65 0.0 0.0 0.00 0.00 0.00 89 1022.2
20260906041403 17 63 1.6 1.6 0.00 0.00 0.00 89 1022.2
20260906040902 17 69 0.0 0.0 0.00 0.00 0.00 90 1022.1
20260906040358 17 73 0.0 0.0 0.00 0.00 0.00 90 1022.2
20260906035853 17 345 0.0 1.6 0.00 0.15 0.15 91 1022.6
20260906035348 17 62 0.0 0.0 0.00 0.15 0.15 92 1022.4
20260906034844 17 62 0.0 0.0 0.00 0.15 0.15 92 1022.4
20260906034344 17 63 1.6 1.6 0.00 0.15 0.15 92 1022.7
20260906033840 17 70 0.0 0.0 0.00 0.15 0.15 92 1022.6
20260906033339 17 70 0.0 0.0 0.00 0.15 0.15 92 1023.0
20260906032836 17 81 0.0 0.0 0.00 0.15 0.15 92 1022.8
20260906032332 17 74 0.0 0.0 0.00 0.15 0.15 92 1023.0
20260906031832 17 18 1.6 3.2 0.00 0.15 0.15 92 1022.6
20260906031327 17 66 0.0 0.0 0.00 0.15 0.15 92 1022.8
20260906030828 18 72 1.6 1.6 0.00 0.15 0.15 92 1022.8
20260906030323 18 59 3.2 3.2 0.00 0.15 0.15 91 1022.7
20260906025823 18 43 1.6 1.6 0.00 0.15 0.15 91 1022.7
20260906025317 18 70 6.4 6.4 0.00 0.15 0.15 91 1022.4
20260906024816 18 36 1.6 3.2 0.00 0.15 0.15 91 1022.4
20260906024315 18 89 1.6 1.6 0.00 0.15 0.15 90 1022.4
20260906023811 18 66 0.0 0.0 0.00 0.15 0.15 89 1022.4
20260906023306 18 68 0.0 0.0 0.00 0.15 0.15 88 1022.4
20260906022801 18 75 0.0 0.0 0.00 0.15 0.15 88 1022.7
20260906022257 18 90 1.6 1.6 0.00 0.15 0.15 87 1022.4
20260906021753 18 78 0.0 0.0 0.00 0.15 0.15 87 1022.7
20260906021251 18 88 0.0 0.0 0.00 0.15 0.15 87 1022.7
20260906020746 18 56 1.6 1.6 0.00 0.15 0.15 87 1022.7
20260906020246 18 79 0.0 0.0 0.00 0.15 0.15 86 1022.4
20260906015741 18 79 0.0 0.0 0.00 0.15 0.15 87 1022.4
20260906015240 18 85 0.0 0.0 0.00 0.15 0.15 88 1022.4
20260906014740 18 72 0.0 0.0 0.00 0.15 0.15 88 1022.3
20260906014235 18 70 0.0 0.0 0.00 0.15 0.15 88 1022.4
20260906013731 18 30 3.2 3.2 0.00 0.15 0.15 88 1022.7
20260906013231 18 8 3.2 4.8 0.00 0.15 0.15 88 1022.4
20260906012726 18 59 1.6 1.6 0.00 0.15 0.15 88 1022.3
20260906012221 18 61 1.6 1.6 0.00 0.15 0.15 88 1022.6
20260906011717 18 74 1.6 1.6 0.00 0.15 0.15 88 1022.3
20260906011212 18 42 1.6 1.6 0.00 0.15 0.15 88 1022.1
20260906010707 18 78 0.0 0.0 0.00 0.15 0.15 87 1021.8
20260906010204 18 346 4.8 6.4 0.00 0.15 0.15 87 1021.9
20260906005703 18 355 1.6 3.2 0.00 0.15 0.15 87 1022.0
20260906005202 18 73 1.6 3.2 0.00 0.15 0.15 87 1022.0
20260906004701 18 88 1.6 3.2 0.00 0.15 0.15 86 1021.8
20260906004156 18 195 3.2 3.2 0.00 0.15 0.15 85 1021.8
20260906003652 18 59 0.0 0.0 0.00 0.15 0.15 85 1021.8
20260906003147 18 64 3.2 3.2 0.00 0.15 0.15 84 1021.8
20260906002642 18 333 4.8 4.8 0.00 0.15 0.15 84 1021.5
20260906002136 18 73 1.6 1.6 0.00 0.15 0.15 83 1021.5
20260906001632 18 87 1.6 3.2 0.00 0.15 0.15 83 1021.4
20260906001132 18 57 3.2 3.2 0.00 0.15 0.15 83 1021.6
20260906000628 18 74 0.0 0.0 0.00 0.15 0.15 83 1021.4
20260906000123 18 326 3.2 4.8 0.00 0.15 0.15 82 1021.5
20260905235621 18 74 1.6 1.6 0.00 0.15 0.15 82 1021.1
20260905235117 18 66 0.0 0.0 0.00 0.15 0.15 81 1021.3
20260905234612 18 61 1.6 1.6 0.00 0.15 0.15 81 1021.5
20260905234108 19 79 0.0 1.6 0.00 0.15 0.15 80 1021.6
20260905233608 20 64 3.2 6.4 0.00 0.15 0.15 78 1021.5
20260905233102 20 327 3.2 6.4 0.00 0.15 0.15 76 1021.4
20260905232557 20 89 0.0 0.0 0.00 0.15 0.15 75 1021.4
20260905232053 20 261 6.4 11.3 0.00 0.15 0.15 75 1021.6
20260905231548 20 337 3.2 3.2 0.00 0.15 0.15 75 1021.6
20260905231044 21 12 4.8 6.4 0.00 0.15 0.15 75 1021.5
20260905230544 21 41 4.8 4.8 0.00 0.15 0.15 75 1021.8
20260905230043 21 253 4.8 6.4 0.00 0.15 0.15 75 1021.4
20260905225537 21 68 1.6 3.2 0.00 0.15 0.15 75 1021.6
20260905225033 21 96 1.6 1.6 0.00 0.15 0.15 76 1021.5
20260905224532 21 55 3.2 6.4 0.00 0.15 0.15 76 1021.6
20260905224032 21 80 1.6 1.6 0.00 0.15 0.15 78 1022.0
20260905223530 21 356 9.7 11.3 0.00 0.15 0.15 77 1021.9
20260905223025 21 36 0.0 0.0 0.00 0.15 0.15 79 1021.9
20260905222525 21 291 6.4 9.7 0.00 0.15 0.15 78 1021.9
20260905222020 21 70 1.6 3.2 0.00 0.15 0.15 79 1021.8
20260905221517 21 72 1.6 3.2 0.00 0.15 0.15 79 1021.6
20260905221012 21 280 4.8 6.4 0.00 0.15 0.15 78 1021.9
20260905220508 21 75 4.8 6.4 0.00 0.15 0.15 78 1022.0
20260905220003 21 215 3.2 4.8 0.00 0.15 0.15 78 1021.9
20260905215458 21 17 6.4 9.7 0.00 0.15 0.15 78 1021.9
20260905214954 21 67 3.2 4.8 0.00 0.15 0.15 77 1022.0
20260905214450 21 68 6.4 9.7 0.00 0.15 0.15 76 1022.0
20260905213949 21 79 1.6 3.2 0.00 0.15 0.15 76 1021.5
20260905213446 21 37 8.0 14.5 0.00 0.15 0.15 76 1021.5
20260905212941 21 86 1.6 1.6 0.00 0.15 0.15 76 1021.8
20260905212436 21 26 3.2 3.2 0.00 0.15 0.15 75 1021.9
20260905211934 21 33 8.0 11.3 0.00 0.15 0.15 75 1021.8
20260905211431 21 68 1.6 3.2 0.00 0.15 0.15 75 1021.8
20260905210927 21 75 6.4 11.3 0.00 0.15 0.15 75 1021.9
20260905210427 21 41 3.2 3.2 0.00 0.15 0.15 74 1022.0
20260905205926 21 344 8.0 9.7 0.00 0.15 0.15 74 1022.0
20260905205421 21 345 4.8 6.4 0.00 0.15 0.15 75 1021.9
20260905204920 21 336 6.4 9.7 0.00 0.15 0.15 74 1022.0
20260905204416 21 66 1.6 1.6 0.00 0.15 0.15 77 1021.9
20260905203915 21 332 6.4 6.4 0.00 0.15 0.15 73 1021.9
20260905203410 21 311 6.4 6.4 0.00 0.15 0.15 76 1021.6
20260905202906 21 283 4.8 11.3 0.00 0.15 0.15 74 1021.8
20260905202401 22 301 3.2 3.2 0.00 0.15 0.15 72 1021.9
20260905201856 22 284 9.7 14.5 0.00 0.15 0.15 70 1022.0
20260905201352 22 20 1.6 1.6 0.00 0.15 0.15 70 1022.0
20260905200851 22 40 3.2 4.8 0.00 0.15 0.15 70 1021.6
20260905200348 21 355 8.0 9.7 0.00 0.15 0.15 69 1021.9
20260905195846 21 336 6.4 6.4 0.00 0.15 0.15 69 1022.0
20260905195341 21 9 9.7 12.9 0.00 0.15 0.15 69 1022.1
20260905194837 22 275 6.4 6.4 0.00 0.15 0.15 69 1021.8
20260905194336 21 276 4.8 3.2 0.00 0.15 0.15 69 1022.0
20260905193836 21 9 9.7 12.9 0.00 0.15 0.15 69 1021.9
20260905193330 21 279 4.8 6.4 0.00 0.15 0.15 71 1022.1
20260905192826 20 56 1.6 1.6 0.00 0.15 0.15 72 1021.5
20260905192322 19 35 1.6 1.6 0.00 0.15 0.15 77 1021.9
20260905191821 18 86 1.6 1.6 0.00 0.15 0.15 81 1021.8
20260905191320 18 304 6.4 6.4 0.00 0.15 0.15 83 1021.9
20260905190819 18 52 1.6 1.6 0.00 0.15 0.15 84 1022.0
20260905190319 18 16 3.2 3.2 0.00 0.15 0.15 86 1022.2
20260905185818 17 26 3.2 3.2 0.00 0.15 0.15 86 1022.1
20260905185313 17 39 3.2 3.2 0.00 0.15 0.15 86 1022.0
20260905184812 17 39 4.8 4.8 0.00 0.15 0.15 85 1022.1
20260905184311 17 68 0.0 0.0 0.00 0.15 0.15 86 1022.2
20260905183810 17 62 1.6 1.6 0.00 0.15 0.15 86 1022.2
20260905183306 16 63 1.6 1.6 0.00 0.15 0.15 87 1022.4
20260905182806 16 67 0.0 1.6 0.00 0.15 0.15 88 1022.2
20260905182306 16 73 1.6 3.2 0.00 0.15 0.15 88 1022.6
20260905181801 16 60 3.2 3.2 0.00 0.15 0.15 88 1023.0
20260905181301 16 82 1.6 1.6 0.00 0.15 0.15 88 1022.9
20260905180800 16 67 1.6 3.2 0.00 0.15 0.15 87 1022.9
20260905180256 16 76 1.6 1.6 0.00 0.15 0.15 91 1023.1
20260905175755 16 89 0.0 0.0 0.00 0.15 0.15 92 1023.1
20260905175250 16 88 0.0 0.0 0.00 0.15 0.15 92 1023.5
20260905174745 16 88 0.0 0.0 0.13 0.15 0.15 91 1023.6
20260905174241 16 89 0.0 0.0 0.13 0.15 0.15 91 1023.7
20260905173738 16 89 0.0 0.0 0.00 0.13 0.13 90 1023.9
20260905173233 16 84 0.0 0.0 0.00 0.13 0.13 90 1024.3
20260905172733 16 93 0.0 0.0 0.00 0.13 0.13 90 1024.6
20260905172232 16 284 1.6 3.2 0.18 0.13 0.13 90 1024.6
20260905171729 16 92 1.6 1.6 0.18 0.13 0.13 89 1025.0
20260905171225 16 100 0.0 0.0 0.00 0.10 0.10 89 1024.9
20260905170721 16 107 1.6 3.2 0.00 0.10 0.10 89 1024.9
20260905170222 16 76 1.6 1.6 0.43 0.10 0.10 90 1025.2
20260905165721 17 91 0.0 0.0 0.61 0.10 0.10 91 1025.0
20260905165217 17 91 0.0 1.6 0.30 0.05 0.05 90 1025.1
20260905164717 19 63 4.8 6.4 0.00 0.00 0.00 86 1025.6
20260905164217 20 12 17.7 25.7 0.00 0.00 0.00 83 1025.7
20260905163713 21 327 0.0 1.6 0.00 0.00 0.00 86 1025.2
20260905163209 21 74 1.6 3.2 0.00 0.00 0.00 85 1024.8
20260905162705 21 68 1.6 3.2 0.00 0.00 0.00 84 1024.9
20260905162204 21 78 4.8 6.4 0.00 0.00 0.00 82 1024.9
20260905161659 22 25 6.4 9.7 0.00 0.00 0.00 80 1024.9
20260905161157 22 279 3.2 4.8 0.00 0.00 0.00 79 1024.8
20260905160656 22 73 1.6 1.6 0.00 0.00 0.00 80 1024.6
20260905160156 22 67 1.6 1.6 0.00 0.00 0.00 79 1024.4
20260905155656 21 85 0.0 1.6 0.00 0.00 0.00 81 1024.5
20260905155155 21 101 1.6 3.2 0.00 0.00 0.00 81 1024.8
20260905154649 21 285 6.4 6.4 0.00 0.00 0.00 83 1024.6
20260905154145 21 72 3.2 3.2 0.00 0.00 0.00 85 1024.5
20260905153641 21 82 1.6 3.2 0.00 0.00 0.00 83 1024.9
20260905153136 21 347 3.2 4.8 0.00 0.00 0.00 84 1024.9
20260905152631 21 287 3.2 6.4 0.00 0.00 0.00 84 1025.0
20260905152126 21 2 4.8 6.4 0.00 0.00 0.00 83 1024.5
20260905151620 21 20 6.4 11.3 0.00 0.00 0.00 83 1024.6
20260905151116 21 294 9.7 12.9 0.00 0.00 0.00 84 1024.4
20260905150612 21 74 3.2 3.2 0.00 0.00 0.00 86 1024.3
20260905150110 21 40 3.2 3.2 0.00 0.00 0.00 86 1024.4
20260905145609 21 60 1.6 1.6 0.00 0.00 0.00 86 1024.4
20260905145108 21 43 1.6 1.6 0.00 0.00 0.00 86 1024.3
20260905144603 21 34 3.2 3.2 0.00 0.00 0.00 86 1024.2
20260905144102 21 74 1.6 3.2 0.00 0.00 0.00 86 1024.1
20260905143601 21 351 4.8 4.8 0.00 0.00 0.00 86 1024.2
20260905143057 21 63 3.2 3.2 0.00 0.00 0.00 86 1024.4
20260905142555 21 334 3.2 4.8 0.00 0.00 0.00 86 1024.6
20260905142050 21 329 6.4 6.4 0.00 0.00 0.00 85 1024.8
20260905141550 21 267 9.7 11.3 0.00 0.00 0.00 85 1024.5
20260905141047 21 91 0.0 1.6 0.00 0.00 0.00 85 1024.4
20260905140542 21 359 3.2 4.8 0.00 0.00 0.00 84 1024.5
20260905140041 21 236 8.0 11.3 0.00 0.00 0.00 85 1024.4
20260905135536 21 340 3.2 3.2 0.00 0.00 0.00 84 1024.6
20260905135037 21 93 0.0 0.0 0.00 0.00 0.00 85 1024.1
20260905134537 21 60 6.4 6.4 0.00 0.00 0.00 85 1024.4
20260905134035 21 66 6.4 9.7 0.00 0.00 0.00 84 1024.3
20260905133531 21 344 4.8 6.4 0.00 0.00 0.00 85 1024.3
20260905133031 20 326 4.8 9.7 0.00 0.00 0.00 85 1024.2
20260905132531 20 16 4.8 6.4 0.00 0.00 0.00 85 1024.4
20260905132025 20 60 3.2 4.8 0.00 0.00 0.00 86 1024.3
20260905131521 20 74 8.0 12.9 0.00 0.00 0.00 86 1024.5
20260905131016 20 353 6.4 6.4 0.00 0.00 0.00 86 1024.5
20260905130515 20 253 3.2 3.2 0.00 0.00 0.00 86 1024.6
20260905130011 20 290 4.8 4.8 0.00 0.00 0.00 86 1024.6
20260905125505 20 284 8.0 12.9 0.00 0.00 0.00 86 1024.6
20260905125000 20 8 4.8 4.8 0.00 0.00 0.00 86 1024.8
20260905124457 20 38 4.8 4.8 0.00 0.00 0.00 86 1024.5
20260905123952 20 33 4.8 6.4 0.00 0.00 0.00 87 1024.4
20260905123448 20 331 4.8 6.4 0.00 0.00 0.00 87 1024.5
20260905122949 20 41 3.2 3.2 0.00 0.00 0.00 87 1024.5
20260905122449 20 37 3.2 4.8 0.00 0.00 0.00 88 1024.5
20260905121944 20 64 1.6 1.6 0.00 0.00 0.00 88 1024.8
20260905121439 20 67 1.6 1.6 0.00 0.00 0.00 88 1024.4
20260905120939 20 81 0.0 0.0 0.00 0.00 0.00 88 1024.3
20260905120433 20 57 3.2 3.2 0.00 0.00 0.00 88 1024.4
20260905115928 19 30 6.4 6.4 0.00 0.00 0.00 88 1024.4
20260905115427 19 39 1.6 1.6 0.00 0.00 0.00 88 1024.2
20260905114923 19 34 3.2 4.8 0.00 0.00 0.00 88 1024.2
20260905114422 19 59 3.2 3.2 0.00 0.00 0.00 88 1024.1
20260905113921 19 64 1.6 1.6 0.00 0.00 0.00 88 1024.1
20260905113417 19 277 3.2 4.8 0.00 0.00 0.00 88 1024.1
20260905112912 19 45 3.2 3.2 0.00 0.00 0.00 87 1024.1
20260905112408 19 10 3.2 4.8 0.00 0.00 0.00 87 1023.9
20260905111903 20 70 0.0 0.0 0.00 0.00 0.00 87 1024.2
20260905111402 19 85 3.2 3.2 0.00 0.00 0.00 87 1024.1
20260905110902 19 292 1.6 3.2 0.00 0.00 0.00 88 1024.1
20260905110356 19 318 6.4 6.4 0.00 0.00 0.00 88 1023.8
20260905105851 19 60 1.6 1.6 0.00 0.00 0.00 87 1023.8
20260905105350 19 48 3.2 4.8 0.00 0.00 0.00 87 1023.8
20260905104844 19 62 1.6 3.2 0.00 0.00 0.00 88 1023.6
20260905104341 19 38 1.6 1.6 0.00 0.00 0.00 87 1023.4
20260905103841 20 70 6.4 9.7 0.00 0.00 0.00 87 1023.7
20260905103336 20 329 3.2 3.2 0.00 0.00 0.00 87 1023.6
20260905102832 20 70 0.0 0.0 0.00 0.00 0.00 87 1023.6
20260905102329 20 50 1.6 3.2 0.00 0.00 0.00 87 1023.7
20260905101828 20 64 0.0 0.0 0.00 0.00 0.00 87 1023.6
20260905101327 20 86 1.6 1.6 0.00 0.00 0.00 87 1023.8
20260905100821 20 52 3.2 3.2 0.00 0.00 0.00 87 1023.7
20260905100318 20 29 3.2 4.8 0.00 0.00 0.00 86 1023.6
20260905095817 20 63 1.6 1.6 0.00 0.00 0.00 86 1023.6
20260905095316 20 68 1.6 1.6 0.00 0.00 0.00 86 1023.7
20260905094811 20 3 3.2 3.2 0.00 0.00 0.00 86 1023.5
20260905094307 20 69 1.6 3.2 0.00 0.00 0.00 86 1023.5
20260905093806 20 69 0.0 0.0 0.00 0.00 0.00 86 1023.5
20260905093302 20 80 0.0 0.0 0.00 0.00 0.00 86 1023.5
20260905092757 20 64 0.0 1.6 0.00 0.00 0.00 86 1023.4
20260905092253 20 55 1.6 1.6 0.00 0.00 0.00 86 1023.4
20260905091752 20 62 0.0 0.0 0.00 0.00 0.00 86 1023.6
20260905091247 20 72 0.0 0.0 0.00 0.00 0.00 86 1023.6
20260905090746 20 49 1.6 1.6 0.00 0.00 0.00 85 1023.5
20260905090242 20 42 1.6 1.6 0.00 0.00 0.00 85 1023.7
20260905085742 20 67 0.0 0.0 0.00 0.00 0.00 85 1023.6
20260905085241 20 62 1.6 1.6 0.00 0.00 0.00 85 1023.6
20260905084742 20 66 0.0 0.0 0.00 0.00 0.00 85 1023.6
20260905084241 20 70 0.0 0.0 0.00 0.00 0.00 84 1023.7
20260905083737 20 67 0.0 0.0 0.00 0.00 0.00 85 1023.8
20260905083232 20 61 0.0 0.0 0.00 0.00 0.00 85 1024.1
20260905082728 20 54 0.0 0.0 0.00 0.00 0.00 84 1023.9
20260905082224 20 58 1.6 1.6 0.00 0.00 0.00 84 1023.9
20260905081724 20 68 0.0 0.0 0.00 0.00 0.00 84 1023.8
20260905081219 20 70 0.0 0.0 0.00 0.00 0.00 83 1023.9
20260905080719 20 68 0.0 0.0 0.00 0.00 0.00 84 1023.6
20260905080218 20 56 1.6 1.6 0.00 0.00 0.00 85 1024.2
20260905075718 20 61 0.0 0.0 0.00 0.00 0.00 85 1024.2
20260905075217 20 61 0.0 0.0 0.00 0.00 0.00 85 1024.4
20260905074716 20 61 0.0 0.0 0.00 0.00 0.00 85 1024.1
20260905074212 20 61 0.0 0.0 0.00 0.00 0.00 85 1024.2
20260905073708 20 56 0.0 0.0 0.00 0.00 0.00 85 1024.3
20260905073203 20 59 0.0 0.0 0.00 0.00 0.00 86 1024.4
20260905072702 20 63 0.0 0.0 0.00 0.00 0.00 85 1024.3